This is the latest recevied weather packets stored in our database for station/object N9PBY-2. If no packets are shown the sender has not sent any weather packets the latest 10 day(s).
| Time | Temp. | Humidity | Pressure | Rain* | Wind** | Luminosity | Snow |
|---|---|---|---|---|---|---|---|
| 1778170807 | 10° C | 38% | 1013 hPa | 0 mm | - | - | - |
| 1778170206 | 9.44° C | 36% | 1013.1 hPa | 0 mm | - | - | - |
| 1778169606 | 9.44° C | 36% | 1013.2 hPa | 0 mm | - | - | - |
| 1778169006 | 9.44° C | 36% | 1013.4 hPa | 0 mm | - | - | - |
| 1778168406 | 9.44° C | 36% | 1013.4 hPa | 0 mm | - | - | - |
| 1778167806 | 9.44° C | 37% | 1013.6 hPa | 0 mm | - | - | - |
| 1778167206 | 8.89° C | 37% | 1013.5 hPa | 0 mm | - | - | - |
| 1778166607 | 8.33° C | 38% | 1013.6 hPa | 0 mm | - | - | - |
| 1778166006 | 8.33° C | 36% | 1013.6 hPa | 0 mm | - | - | - |
| 1778165407 | 9.44° C | 33% | 1013.6 hPa | 0 mm | - | - | - |
| 1778164806 | 10° C | 36% | 1013.8 hPa | 0 mm | - | - | - |
| 1778164206 | 10° C | 35% | 1013.8 hPa | 0 mm | - | - | - |
| 1778163607 | 9.44° C | 37% | 1013.9 hPa | 0 mm | - | - | - |
| 1778163006 | 8.33° C | 37% | 1014.1 hPa | 0 mm | - | - | - |
| 1778162407 | 7.78° C | 41% | 1014 hPa | 0 mm | - | - | - |
| 1778161807 | 7.78° C | 41% | 1014.1 hPa | 0 mm | - | - | - |
| 1778161207 | 7.78° C | 40% | 1014.3 hPa | 0 mm | - | - | - |
| 1778160606 | 7.22° C | 44% | 1014.2 hPa | 0 mm | - | - | - |
| 1778160006 | 6.67° C | 45% | 1014.2 hPa | 0 mm | - | - | - |
| 1778159406 | 6.11° C | 46% | 1014.3 hPa | 0 mm | - | - | - |
| 1778158807 | 5.56° C | 50% | 1014.4 hPa | 0 mm | - | - | - |
| 1778158206 | 4.44° C | 52% | 1014.3 hPa | 0 mm | - | - | - |
| 1778157607 | 3.89° C | 54% | 1014.3 hPa | 0 mm | - | - | - |
| 1778157007 | 3.33° C | 56% | 1014.1 hPa | 0 mm | - | - | - |
| 1778156406 | 2.78° C | 59% | 1014 hPa | 0 mm | - | - | - |
* Rain latest hour (hover to see other rain measurements)
** Current wind speed in m/s (hover to see current wind gust speed)